Location: Bidart
(43.4376°N, 1.5913°W)
Time: 21:54:12
(UTC+00:00)

USA 234 - Pass Details

Date: 19 May 2025
Orbit: 1097 x 1111 km, 123.0° (Epoch: 13 June)

Event Time Altitude Azimuth Distance (km) Brightness Sun altitude
Rises 20:50:20 0° 49° (NE) 3,926 6.1 -12.7°
Reaches altitude 10° 20:52:49 10° 50° (NE) 2,968 5.5 -13.1°
Maximum altitude 20:59:23 83° 139° (SE) 1,117 3.2 -13.9°
Drops below altitude 10° 21:05:58 10° 228° (SW) 2,965 5.5 -14.7°
Sets 21:08:27 0° 229° (SW) 3,922 6.2 -15.0°
